Home   Weather   Zerbst/Anhalt   Past weeks

Flag for Germany Past Weather in Zerbst/Anhalt, Saxony-Anhalt, Germany — Yesterday and Last 2 Weeks

Now
55 °F

Passing clouds.


Feels Like: 51 °F
Forecast: 40 / 50 °F
Wind: 16 mph from Southwest

Location: Leipzig-Schkeuditz

Current Time: Apr 24, 2017 at 3:28:53 pm

Latest Report: Apr 24, 2017 at 2:50 pm


Visibility: N/A

Pressure: 29.92 "Hg

Humidity: 38%

Dew Point: 30 °F

Location of Zerbst/AnhaltLocation

Past Weather in Zerbst/Anhalt — Graph

°F

Zerbst/Anhalt Temperature Yesterday

Maximum temperature yesterday: 50 °F (at 4:20 pm)
Minimum temperature yesterday: 37 °F (at 10:20 pm)
Average temperature yesterday: 43 °F

High & Low Weather Summary for the Past Weeks

 TemperatureHumidityPressure
High70 °F (Apr 10, 12:50 pm)100% (Apr 12, 10:50 pm)30.60 "Hg (Apr 12, 10:50 pm)
Low28 °F (Apr 20, 3:50 am)40% (Apr 20, 5:50 pm)29.80 "Hg (Apr 12, 10:20 pm)
Average45 °F72%30.11 "Hg
* Reported Apr 9 2:20 pm — Apr 24 2:20 pm, Zerbst/Anhalt, Weather by CustomWeather, © 2017

Note: Actual official high and low records may vary slightly from our data, if they occured in-between our weather recording intervals... More about our weather records

Advertising

Zerbst/Anhalt Weather History for the Previous 24 Hours

Scroll right to see more
 ConditionsComfort  
Time TempWeatherWind HumidityBarometerVisibility
2:20 pm
Mon, Apr 24
55 °FSunny.17 mph41%29.92 "Hg10 mi
1:50 pm55 °FPassing clouds.16 mph44%29.95 "HgN/A
1:20 pm55 °FPassing clouds.15 mph44%29.95 "HgN/A
12:50 pm54 °FSunny.17 mph41%29.98 "Hg10 mi
12:20 pm52 °FPartly sunny.17 mph47%30.01 "HgN/A
11:50 am52 °FPartly sunny.16 mph47%30.01 "HgN/A
11:20 am50 °FPartly sunny.16 mph50%30.04 "HgN/A
10:50 am48 °FScattered clouds.14 mph50%30.04 "HgN/A
10:20 am48 °FSunny.14 mph54%30.04 "Hg10 mi
9:50 am46 °FSunny.10 mph57%30.07 "Hg10 mi
9:20 am45 °FSunny.10 mph66%30.07 "Hg10 mi
8:50 am43 °FSunny.10 mph71%30.07 "Hg10 mi
8:20 am39 °FSunny.7 mph75%30.09 "Hg10 mi
7:50 am37 °FSunny.9 mph81%30.09 "Hg10 mi
7:20 am37 °FSunny.7 mph81%30.09 "Hg10 mi
6:50 am34 °FSunny.7 mph87%30.09 "Hg10 mi
6:20 am34 °FSunny.7 mph87%30.09 "Hg10 mi
5:50 am30 °FClear.6 mph93%30.09 "Hg10 mi
5:20 am32 °FClear.6 mph87%30.12 "Hg10 mi
4:50 am32 °FClear.6 mph93%30.12 "Hg10 mi
4:20 am34 °FPassing clouds.6 mph87%30.12 "HgN/A
3:50 am36 °FClear.8 mph81%30.12 "Hg10 mi
3:20 am36 °FClear.9 mph81%30.15 "Hg10 mi
2:50 am36 °FClear.8 mph81%30.15 "Hg10 mi
2:20 am34 °FPassing clouds.7 mph81%30.15 "HgN/A
1:50 am36 °FPassing clouds.7 mph81%30.15 "HgN/A
1:20 am34 °FClear.9 mph87%30.18 "Hg10 mi
12:50 am39 °FClear.9 mph75%30.15 "Hg10 mi
12:20 am37 °FClear.8 mph81%30.18 "Hg10 mi
11:50 pm
Sun, Apr 23
41 °FPassing clouds.10 mph70%30.18 "HgN/A
11:20 pm41 °FPartly cloudy.9 mph76%30.15 "HgN/A
10:50 pm41 °FPassing clouds.10 mph76%30.15 "HgN/A
10:20 pm37 °FClear.8 mph81%30.18 "Hg10 mi
9:50 pm39 °FClear.9 mph70%30.15 "Hg10 mi
8:50 pm43 °FPassing clouds.16 mph66%30.15 "HgN/A
8:20 pm45 °FSprinkles. Partly cloudy.15 mph57%30.15 "HgN/A
7:50 pm45 °FScattered showers. Partly sunny.14 mph66%30.15 "HgN/A
7:20 pm46 °FSprinkles. Broken clouds.16 mph57%30.12 "HgN/A
6:50 pm46 °FSprinkles. Partly sunny.16 mph53%30.12 "HgN/A
6:20 pm46 °FSunny.21 mph53%30.12 "Hg10 mi
5:50 pm48 °FBroken clouds.18 mph46%30.12 "HgN/A
5:20 pm48 °FBroken clouds.20 mph46%30.12 "HgN/A
4:50 pm48 °FBroken clouds.23 mph50%30.12 "HgN/A
4:20 pm50 °FBroken clouds.21 mph47%30.12 "HgN/A
3:50 pm48 °FBroken clouds.23 mph46%30.12 "HgN/A
3:20 pm46 °FBroken clouds.22 mph50%30.12 "HgN/A
Weather by CustomWeather, © 2017

See weather overviewHow to use our weather pages